This is the latest recevied weather packets stored in our database for station/object F5OWB. If no packets are shown the sender has not sent any weather packets the latest 10 day(s).
| Time | Temp. | Humidity | Pressure | Rain* | Wind** | Luminosity | Snow |
|---|---|---|---|---|---|---|---|
| 1778250385 | 20° C | 49% | 1017.1 hPa | 0 mm | - | 624 W/m² | - |
| 1778250323 | 20° C | 47% | 1017.1 hPa | 0 mm | - | 624 W/m² | - |
| 1778250265 | 20° C | 48% | 1017.1 hPa | 0 mm | - | 626 W/m² | - |
| 1778250233 | 20° C | 48% | 1017.1 hPa | 0 mm | - | 628 W/m² | - |
| 1778250139 | 20° C | 51% | 1017.1 hPa | 0 mm | - | 629 W/m² | - |
| 1778250082 | 20° C | 48% | 1017.1 hPa | 0 mm | - | 635 W/m² | - |
| 1778250017 | 20° C | 49% | 1017.1 hPa | 0 mm | - | 635 W/m² | - |
| 1778249954 | 20° C | 50% | 1017.1 hPa | 0 mm | - | 636 W/m² | - |
| 1778249893 | 20° C | 50% | 1017.2 hPa | 0 mm | - | 638 W/m² | - |
| 1778249829 | 20° C | 48% | 1017.2 hPa | 0 mm | - | 640 W/m² | - |
| 1778249768 | 20° C | 49% | 1017.2 hPa | 0 mm | - | 635 W/m² | - |
| 1778249705 | 20° C | 47% | 1017.2 hPa | 0 mm | - | 642 W/m² | - |
| 1778249644 | 20° C | 47% | 1017.3 hPa | 0 mm | - | 645 W/m² | - |
| 1778249585 | 20° C | 48% | 1017.3 hPa | 0 mm | - | 647 W/m² | - |
| 1778249525 | 20° C | 51% | 1017.3 hPa | 0 mm | - | 647 W/m² | - |
| 1778249463 | 20° C | 51% | 1017.3 hPa | 0 mm | - | 649 W/m² | - |
| 1778249403 | 20° C | 47% | 1017.3 hPa | 0 mm | - | 650 W/m² | - |
| 1778249343 | 20° C | 47% | 1017.3 hPa | 0 mm | - | 652 W/m² | - |
| 1778249283 | 20° C | 48% | 1017.3 hPa | 0 mm | - | 652 W/m² | - |
| 1778249224 | 20° C | 51% | 1017.3 hPa | 0 mm | - | 654 W/m² | - |
| 1778249162 | 20° C | 50% | 1017.4 hPa | 0 mm | - | 656 W/m² | - |
| 1778249102 | 20° C | 48% | 1017.4 hPa | 0 mm | - | 659 W/m² | - |
| 1778249043 | 20° C | 49% | 1017.4 hPa | 0 mm | - | 661 W/m² | - |
| 1778248983 | 20° C | 48% | 1017.4 hPa | 0 mm | - | 663 W/m² | - |
| 1778248920 | 20° C | 48% | 1017.4 hPa | 0 mm | - | 664 W/m² | - |
* Rain latest hour (hover to see other rain measurements)
** Current wind speed in m/s (hover to see current wind gust speed)